Location: Bo?a Wola
(50.4192°N, 19.7966°E)
Time: 02:41:31
(UTC+00:00)

GEOS 3 Rocket - Pass Details

Date: 18 September 2024
Orbit: 790 x 825 km, 115.0° (Epoch: 14 October)

Event Time Altitude Azimuth Distance (km) Brightness Sun altitude
Exits shadow 18:50:48 29° 158° (SSE) 1,442 4.5 -19.7°
Maximum altitude 18:53:25 65° 231° (SW) 887 3.8 -20.1°
Drops below altitude 10° 18:58:34 10° 314° (NW) 2,386 7.2 -20.8°
Sets 19:00:53 0° 317° (NW) 3,316 8.1 -21.1°
